Roseburg, OR

9:00 PM PDT on March 22, 2017 (GMT -0700)
Roseburg Regional

Weather History for KRBG - March, 2013

Change the Weather History Date:

Monday, March 4, 2013

  Actual Average Record
Temperature  
Mean Temperature 47 °F 47 °F  
Max Temperature 64 °F 56 °F 73 °F (1937)
Min Temperature 30 °F 38 °F 24 °F (1955)
Degree Days  
Heating Degree Days 18 18  
Month to date heating degree days 59 72  
Since 1 July heating degree days 2769 2941  
Cooling Degree Days 0 0  
Month to date cooling degree days 0 0  
Year to date cooling degree days 0 0  
Moisture  
Dew Point 34 °F    
Average Humidity 67    
Maximum Humidity 92    
Minimum Humidity 42    
Precipitation  
Precipitation 0.00 in 0.09 in 1.12 in (1956)
Month to date precipitation 0.04 0.40  
Year to date precipitation 3.19 9.44  
Sea Level Pressure  
Sea Level Pressure 30.06 in    
Wind  
Wind Speed 1 mph (NNW)    
Max Wind Speed 7 mph    
Max Gust Speed 9 mph    
Visibility 10 miles    
Events      
T = Trace of Precipitation, MM = Missing Value Source: NWS Daily Summary

Daily Weather History Graph

Daily Weather History Graph

Search for Another Location

Airport or City:

Trip Planner

Search our weather history database for the weather conditions in past years. The results will help you decide how hot, cold, wet, or windy it might be!

Date:

Astronomy

Mar. 04, 2013 Rise Set
Actual Time 6:43 AM PST 6:06 PM PST
Civil Twilight 6:15 AM PST 6:35 PM PST
Nautical Twilight 5:42 AM PST 7:08 PM PST
Astronomical Twilight 5:09 AM PST 7:41 PM PST
Moon 1:06 AM PST (3/4) 10:46 AM PST (3/4)
Length of Visible Light 12h 19m
Length of Day
11h 22m
Waning Gibbous, 51% of the Moon is Illuminated
Mar 4
Waning Gibbous
Mar 4
Last Quarter
Mar 11
New
Mar 19
First Quarter
Mar 27
Full

Hourly Weather History & Observations

Time (PST) Temp. Windchill Dew Point Humidity Pressure Visibility Wind Dir Wind Speed Gust Speed Precip Events Conditions
12:53 AM 34.0 °F - 28.9 °F 82% 30.19 in 10.0 mi Calm Calm - N/A   Clear
1:53 AM 33.1 °F - 28.9 °F 85% 30.18 in 10.0 mi Calm Calm - N/A   Clear
2:53 AM 32.0 °F - 28.9 °F 88% 30.16 in 10.0 mi Calm Calm - N/A   Clear
3:53 AM 30.9 °F - 28.0 °F 89% 30.16 in 10.0 mi Calm Calm - N/A   Clear
4:53 AM 30.9 °F - 28.0 °F 89% 30.15 in 10.0 mi Calm Calm - N/A   Clear
5:53 AM 30.0 °F - 28.0 °F 92% 30.14 in 10.0 mi Calm Calm - N/A   Clear
6:15 AM 30.2 °F - 28.4 °F 93% 30.13 in 10.0 mi Calm Calm - N/A   Partly Cloudy
6:53 AM 30.9 °F - 28.0 °F 89% 30.13 in 10.0 mi Calm Calm - N/A   Mostly Cloudy
7:38 AM 32.0 °F - 28.4 °F 87% 30.11 in 10.0 mi Calm Calm - N/A   Overcast
7:53 AM 32.0 °F - 28.9 °F 88% 30.13 in 10.0 mi Calm Calm - N/A   Overcast
8:53 AM 35.1 °F - 33.1 °F 92% 30.13 in 10.0 mi Calm Calm - N/A   Overcast
9:53 AM 37.9 °F - 34.0 °F 86% 30.11 in 10.0 mi Calm Calm - N/A   Scattered Clouds
10:53 AM 44.1 °F - 34.0 °F 68% 30.09 in 10.0 mi Calm Calm - N/A   Clear
11:53 AM 48.9 °F - 36.0 °F 61% 30.07 in 10.0 mi Calm Calm - N/A   Clear
12:53 PM 53.1 °F - 37.9 °F 57% 30.02 in 10.0 mi Calm Calm - N/A   Clear
1:53 PM 57.0 °F - 37.9 °F 49% 29.99 in 10.0 mi Variable 3.5 mph - N/A   Clear
2:53 PM 61.0 °F - 37.9 °F 42% 29.97 in 10.0 mi NNW 3.5 mph - N/A   Clear
3:53 PM 62.1 °F - 39.0 °F 43% 29.95 in 10.0 mi Calm Calm - N/A   Clear
4:53 PM 62.1 °F - 39.9 °F 44% 29.93 in 10.0 mi NW 4.6 mph - N/A   Clear
5:53 PM 59.0 °F - 39.9 °F 49% 29.95 in 10.0 mi NNE 4.6 mph - N/A   Clear
6:53 PM 53.1 °F - 39.9 °F 61% 29.94 in 10.0 mi Calm Calm - N/A   Clear
7:53 PM 50.0 °F - 37.9 °F 63% 29.96 in 10.0 mi Calm Calm - N/A   Clear
8:53 PM 46.0 °F 44.8 °F 39.0 °F 76% 29.95 in 10.0 mi NW 3.5 mph - N/A   Clear
9:53 PM 43.0 °F - 36.0 °F 76% 29.95 in 10.0 mi Calm Calm - N/A   Clear
11:53 PM 37.9 °F - 32.0 °F 79% 29.92 in 10.0 mi Calm Calm - N/A   Clear